Time,TemperatureF,DewpointF,PressureIn,WindDirection,WindDirectionDegrees,WindSpeedMPH,WindSpeedGustMPH,Humidity,HourlyPrecipIn,Conditions,Clouds,dailyrainin,SoftwareType,DateUTC
2013-07-10 00:01:00,70.5,64.4,29.84,West,261,0.0,1.0,81,0.00,,SKC,0.00,VWS V14.01,2013-07-10 05:01:00,
2013-07-10 00:06:00,70.4,64.3,29.84,West,263,0.0,1.0,81,0.00,,SKC,0.00,VWS V14.01,2013-07-10 05:06:00,
2013-07-10 00:11:00,70.3,64.6,29.84,NNW,338,0.0,4.0,82,0.00,,SKC,0.00,VWS V14.01,2013-07-10 05:11:00,
2013-07-10 00:16:00,70.2,64.4,29.84,NNW,338,0.0,4.0,82,0.00,,SKC,0.00,VWS V14.01,2013-07-10 05:16:00,
2013-07-10 00:21:00,70.1,64.4,29.85,NNW,334,0.0,4.0,82,0.00,,SKC,0.00,VWS V14.01,2013-07-10 05:21:00,
2013-07-10 00:26:00,70.0,64.6,29.85,NNW,334,0.0,4.0,83,0.00,,SKC,0.00,VWS V14.01,2013-07-10 05:26:00,
2013-07-10 00:31:00,69.7,64.3,29.85,NW,317,5.0,5.0,83,0.00,,SKC,0.00,VWS V14.01,2013-07-10 05:31:00,
2013-07-10 00:36:00,69.5,63.8,29.85,NNW,337,0.0,5.0,82,0.00,,SKC,0.00,VWS V14.01,2013-07-10 05:36:00,
2013-07-10 00:41:00,69.1,63.4,29.85,NW,305,1.0,5.0,82,0.00,,SKC,0.00,VWS V14.01,2013-07-10 05:41:00,
2013-07-10 00:46:00,68.8,62.7,29.86,WNW,299,0.0,6.0,81,0.00,,SKC,0.00,VWS V14.01,2013-07-10 05:46:00,
2013-07-10 00:51:00,68.5,62.8,29.86,SSW,209,3.0,6.0,82,0.00,,SKC,0.00,VWS V14.01,2013-07-10 05:51:00,
2013-07-10 00:56:00,68.2,62.8,29.86,WSW,248,0.0,6.0,83,0.00,,SKC,0.00,VWS V14.01,2013-07-10 05:56:00,
2013-07-10 01:01:00,67.9,62.2,29.86,NW,305,0.0,4.0,82,0.00,,SKC,0.00,VWS V14.01,2013-07-10 06:01:00,
2013-07-10 01:06:00,67.6,61.2,29.86,NW,317,0.0,7.0,80,0.00,,SKC,0.00,VWS V14.01,2013-07-10 06:06:00,
2013-07-10 01:11:00,67.3,60.2,29.86,NNW,329,4.0,7.0,78,0.00,,SKC,0.00,VWS V14.01,2013-07-10 06:11:00,
2013-07-10 01:16:00,67.1,59.3,29.86,NW,323,0.0,7.0,76,0.00,,SKC,0.00,VWS V14.01,2013-07-10 06:16:00,
2013-07-10 01:21:00,66.9,58.7,29.87,NW,315,0.0,9.0,75,0.00,,SKC,0.00,VWS V14.01,2013-07-10 06:21:00,
2013-07-10 01:26:00,66.7,58.2,29.87,WNW,295,0.0,9.0,74,0.00,,SKC,0.00,VWS V14.01,2013-07-10 06:26:00,
2013-07-10 01:31:00,66.5,58.3,29.87,WNW,284,1.0,5.0,75,0.00,,SKC,0.00,VWS V14.01,2013-07-10 06:31:00,
2013-07-10 01:36:00,66.1,58.0,29.86,WNW,298,0.0,5.0,75,0.00,,SKC,0.00,VWS V14.01,2013-07-10 06:36:00,
2013-07-10 01:41:00,65.8,57.7,29.87,NW,318,2.0,5.0,75,0.00,,SKC,0.00,VWS V14.01,2013-07-10 06:41:00,
2013-07-10 01:46:00,65.6,57.5,29.87,NW,307,0.0,5.0,75,0.00,,SKC,0.00,VWS V14.01,2013-07-10 06:46:00,
2013-07-10 01:51:00,65.3,57.2,29.87,NW,321,0.0,5.0,75,0.00,,SKC,0.00,VWS V14.01,2013-07-10 06:51:00,
2013-07-10 01:56:00,65.1,57.0,29.87,WNW,288,1.0,6.0,75,0.00,,SKC,0.00,VWS V14.01,2013-07-10 06:56:00,
2013-07-10 02:01:00,64.9,56.8,29.88,North,350,0.0,5.0,75,0.00,,SKC,0.00,VWS V14.01,2013-07-10 07:01:00,
2013-07-10 02:06:00,64.6,56.5,29.88,North,350,0.0,5.0,75,0.00,,SKC,0.00,VWS V14.01,2013-07-10 07:06:00,
2013-07-10 02:11:00,64.4,56.3,29.88,WNW,288,0.0,9.0,75,0.00,,SKC,0.00,VWS V14.01,2013-07-10 07:11:00,
2013-07-10 02:16:00,64.2,56.5,29.88,WNW,298,0.0,9.0,76,0.00,,SKC,0.00,VWS V14.01,2013-07-10 07:16:00,
2013-07-10 02:21:00,64.1,56.4,29.89,West,270,2.0,9.0,76,0.00,,SKC,0.00,VWS V14.01,2013-07-10 07:21:00,
2013-07-10 02:26:00,63.9,56.6,29.89,NW,321,0.0,9.0,77,0.00,,SKC,0.00,VWS V14.01,2013-07-10 07:26:00,
2013-07-10 02:31:00,63.6,55.9,29.89,NW,311,1.0,4.0,76,0.00,,SKC,0.00,VWS V14.01,2013-07-10 07:31:00,
2013-07-10 02:36:00,63.5,55.8,29.89,WSW,256,0.0,7.0,76,0.00,,SKC,0.00,VWS V14.01,2013-07-10 07:36:00,
2013-07-10 02:41:00,63.3,56.0,29.89,NW,309,0.0,7.0,77,0.00,,SKC,0.00,VWS V14.01,2013-07-10 07:41:00,
2013-07-10 02:46:00,63.1,56.1,29.89,NW,312,0.0,7.0,78,0.00,,SKC,0.00,VWS V14.01,2013-07-10 07:46:00,
2013-07-10 02:51:00,62.9,55.9,29.89,NW,319,0.0,7.0,78,0.00,,SKC,0.00,VWS V14.01,2013-07-10 07:51:00,
2013-07-10 02:56:00,62.7,56.1,29.89,NW,307,0.0,7.0,79,0.00,,SKC,0.00,VWS V14.01,2013-07-10 07:56:00,
2013-07-10 03:01:00,62.5,56.2,29.90,NW,307,0.0,0.0,80,0.00,,SKC,0.00,VWS V14.01,2013-07-10 08:01:00,
2013-07-10 03:06:00,62.3,56.4,29.90,NW,308,0.0,2.0,81,0.00,,SKC,0.00,VWS V14.01,2013-07-10 08:06:00,
2013-07-10 03:11:00,62.2,56.3,29.90,WNW,293,0.0,4.0,81,0.00,,SKC,0.00,VWS V14.01,2013-07-10 08:11:00,
2013-07-10 03:16:00,62.1,56.2,29.90,NNW,328,0.0,4.0,81,0.00,,SKC,0.00,VWS V14.01,2013-07-10 08:16:00,
2013-07-10 03:21:00,62.0,56.5,29.90,NNW,327,0.0,4.0,82,0.00,,SKC,0.00,VWS V14.01,2013-07-10 08:21:00,
2013-07-10 03:26:00,61.8,56.6,29.90,NNW,338,0.0,4.0,83,0.00,,SKC,0.00,VWS V14.01,2013-07-10 08:26:00,
2013-07-10 03:31:00,61.6,56.4,29.90,NNW,338,0.0,0.0,83,0.00,,SKC,0.00,VWS V14.01,2013-07-10 08:31:00,
2013-07-10 03:36:00,61.4,56.5,29.90,NNW,333,1.0,4.0,84,0.00,,SKC,0.00,VWS V14.01,2013-07-10 08:36:00,
2013-07-10 03:41:00,61.2,56.3,29.90,NNW,338,0.0,4.0,84,0.00,,SKC,0.00,VWS V14.01,2013-07-10 08:41:00,
2013-07-10 03:46:00,61.1,56.2,29.90,WSW,242,0.0,4.0,84,0.00,,SKC,0.00,VWS V14.01,2013-07-10 08:46:00,
2013-07-10 03:51:00,61.0,56.5,29.91,West,266,0.0,4.0,85,0.00,,SKC,0.00,VWS V14.01,2013-07-10 08:51:00,
2013-07-10 03:56:00,60.9,56.4,29.91,WNW,286,0.0,4.0,85,0.00,,SKC,0.00,VWS V14.01,2013-07-10 08:56:00,
2013-07-10 04:01:00,60.7,56.5,29.91,WNW,286,0.0,0.0,86,0.00,,SKC,0.00,VWS V14.01,2013-07-10 09:01:00,
2013-07-10 04:06:00,60.6,56.7,29.91,West,270,0.0,6.0,87,0.00,,SKC,0.00,VWS V14.01,2013-07-10 09:06:00,
2013-07-10 04:11:00,60.5,56.6,29.91,NW,311,0.0,6.0,87,0.00,,SKC,0.00,VWS V14.01,2013-07-10 09:11:00,
2013-07-10 04:16:00,60.4,56.5,29.92,NNW,327,0.0,6.0,87,0.00,,SKC,0.00,VWS V14.01,2013-07-10 09:16:00,
2013-07-10 04:21:00,60.3,56.4,29.92,WSW,245,0.0,6.0,87,0.00,,SKC,0.00,VWS V14.01,2013-07-10 09:21:00,
2013-07-10 04:26:00,60.2,56.6,29.92,NW,315,0.0,6.0,88,0.00,,SKC,0.00,VWS V14.01,2013-07-10 09:26:00,
2013-07-10 04:31:00,60.1,56.5,29.92,NNW,330,0.0,4.0,88,0.00,,SKC,0.00,VWS V14.01,2013-07-10 09:31:00,
2013-07-10 04:36:00,60.0,56.4,29.92,NNW,329,0.0,4.0,88,0.00,,SKC,0.00,VWS V14.01,2013-07-10 09:36:00,
2013-07-10 04:41:00,59.8,56.6,29.92,NW,322,0.0,6.0,89,0.00,,SKC,0.00,VWS V14.01,2013-07-10 09:41:00,
2013-07-10 04:46:00,59.8,56.6,29.92,NW,326,0.0,6.0,89,0.00,,SKC,0.00,VWS V14.01,2013-07-10 09:46:00,
2013-07-10 04:51:00,59.7,56.5,29.92,NNW,333,0.0,6.0,89,0.00,,SKC,0.00,VWS V14.01,2013-07-10 09:51:00,
2013-07-10 04:56:00,59.6,56.4,29.92,WSW,255,1.0,6.0,89,0.00,,SKC,0.00,VWS V14.01,2013-07-10 09:56:00,
2013-07-10 05:01:00,59.5,56.3,29.93,WSW,255,0.0,0.0,89,0.00,,SKC,0.00,VWS V14.01,2013-07-10 10:01:00,
2013-07-10 05:06:00,59.4,56.5,29.93,NNW,331,0.0,4.0,90,0.00,,SKC,0.00,VWS V14.01,2013-07-10 10:06:00,
2013-07-10 05:11:00,59.2,56.3,29.93,NNW,331,0.0,4.0,90,0.00,,SKC,0.00,VWS V14.01,2013-07-10 10:11:00,
2013-07-10 05:16:00,59.1,56.2,29.93,West,261,0.0,4.0,90,0.00,,SKC,0.00,VWS V14.01,2013-07-10 10:16:00,
2013-07-10 05:21:00,58.9,56.0,29.93,WSW,255,0.0,4.0,90,0.00,,SKC,0.00,VWS V14.01,2013-07-10 10:21:00,
2013-07-10 05:26:00,58.8,56.2,29.93,WNW,291,0.0,4.0,91,0.00,,SKC,0.00,VWS V14.01,2013-07-10 10:26:00,
2013-07-10 05:31:00,58.7,56.1,29.93,WNW,290,0.0,0.0,91,0.00,,SKC,0.00,VWS V14.01,2013-07-10 10:31:00,
2013-07-10 05:36:00,58.6,56.0,29.94,WNW,290,0.0,1.0,91,0.00,,SKC,0.00,VWS V14.01,2013-07-10 10:36:00,
2013-07-10 05:41:00,58.5,55.9,29.94,NNW,345,5.0,5.0,91,0.00,,SKC,0.00,VWS V14.01,2013-07-10 10:41:00,
2013-07-10 05:46:00,58.4,56.1,29.94,NNW,334,0.0,5.0,92,0.00,,SKC,0.00,VWS V14.01,2013-07-10 10:46:00,
2013-07-10 05:51:00,58.2,55.9,29.94,NNW,331,0.0,5.0,92,0.00,,SKC,0.00,VWS V14.01,2013-07-10 10:51:00,
2013-07-10 05:56:00,58.1,55.8,29.94,NNW,331,0.0,5.0,92,0.00,,SKC,0.00,VWS V14.01,2013-07-10 10:56:00,
2013-07-10 06:01:00,58.1,55.8,29.94,NNW,331,0.0,0.0,92,0.00,,SKC,0.00,VWS V14.01,2013-07-10 11:01:00,
2013-07-10 06:06:00,58.0,55.7,29.94,NW,309,1.0,1.0,92,0.00,,SKC,0.00,VWS V14.01,2013-07-10 11:06:00,
2013-07-10 06:11:00,58.0,55.7,29.95,West,277,0.0,1.0,92,0.00,,SKC,0.00,VWS V14.01,2013-07-10 11:11:00,
2013-07-10 06:16:00,58.0,55.7,29.95,West,281,0.0,1.0,92,0.00,,SKC,0.00,VWS V14.01,2013-07-10 11:16:00,
2013-07-10 06:21:00,58.0,55.7,29.95,West,267,1.0,2.0,92,0.00,,SKC,0.00,VWS V14.01,2013-07-10 11:21:00,
2013-07-10 06:26:00,58.1,55.8,29.95,WNW,299,0.0,2.0,92,0.00,,SKC,0.00,VWS V14.01,2013-07-10 11:26:00,
2013-07-10 06:31:00,58.2,55.9,29.95,West,261,0.0,2.0,92,0.00,,SKC,0.00,VWS V14.01,2013-07-10 11:31:00,
2013-07-10 06:36:00,58.3,56.0,29.95,West,261,0.0,3.0,92,0.00,,SKC,0.00,VWS V14.01,2013-07-10 11:36:00,
2013-07-10 06:41:00,58.4,56.1,29.95,West,259,1.0,4.0,92,0.00,,SKC,0.00,VWS V14.01,2013-07-10 11:41:00,
2013-07-10 06:46:00,58.6,56.3,29.95,WSW,254,0.0,4.0,92,0.00,,SKC,0.00,VWS V14.01,2013-07-10 11:46:00,
2013-07-10 06:51:00,58.7,56.1,29.95,NNW,331,0.0,4.0,91,0.00,,SKC,0.00,VWS V14.01,2013-07-10 11:51:00,
2013-07-10 06:56:00,58.9,56.3,29.95,NW,325,0.0,4.0,91,0.00,,SKC,0.00,VWS V14.01,2013-07-10 11:56:00,
2013-07-10 07:01:00,59.0,56.7,29.95,WSW,257,2.0,2.0,92,0.00,,SKC,0.00,VWS V14.01,2013-07-10 12:01:00,
2013-07-10 07:06:00,59.1,56.5,29.95,NNW,329,1.0,7.0,91,0.00,,SKC,0.00,VWS V14.01,2013-07-10 12:06:00,
2013-07-10 07:11:00,59.4,56.8,29.95,West,269,0.0,7.0,91,0.00,,SKC,0.00,VWS V14.01,2013-07-10 12:11:00,
2013-07-10 07:16:00,59.7,56.8,29.96,NW,325,0.0,7.0,90,0.00,,SKC,0.00,VWS V14.01,2013-07-10 12:16:00,
2013-07-10 07:21:00,60.0,57.1,29.96,NNW,338,0.0,7.0,90,0.00,,SKC,0.00,VWS V14.01,2013-07-10 12:21:00,
2013-07-10 07:26:00,60.4,57.2,29.96,NNW,328,1.0,7.0,89,0.00,,SKC,0.00,VWS V14.01,2013-07-10 12:26:00,
2013-07-10 07:31:00,60.8,57.2,29.96,NW,304,0.0,5.0,88,0.00,,SKC,0.00,VWS V14.01,2013-07-10 12:31:00,
2013-07-10 07:36:00,61.2,57.3,29.96,South,185,0.0,6.0,87,0.00,,SKC,0.00,VWS V14.01,2013-07-10 12:36:00,
2013-07-10 07:41:00,61.5,57.6,29.96,NNW,331,0.0,6.0,87,0.00,,SKC,0.00,VWS V14.01,2013-07-10 12:41:00,
2013-07-10 07:46:00,61.8,57.6,29.96,NW,320,1.0,8.0,86,0.00,,SKC,0.00,VWS V14.01,2013-07-10 12:46:00,
2013-07-10 07:51:00,62.1,57.9,29.96,NW,309,0.0,8.0,86,0.00,,SKC,0.00,VWS V14.01,2013-07-10 12:51:00,
2013-07-10 07:56:00,62.4,57.8,29.96,West,281,1.0,8.0,85,0.00,,SKC,0.00,VWS V14.01,2013-07-10 12:56:00,
2013-07-10 08:01:00,62.6,58.0,29.96,NW,313,0.0,5.0,85,0.00,,SKC,0.00,VWS V14.01,2013-07-10 13:01:00,
2013-07-10 08:06:00,62.9,58.0,29.96,SW,236,0.0,7.0,84,0.00,,SKC,0.00,VWS V14.01,2013-07-10 13:06:00,
2013-07-10 08:11:00,63.2,58.3,29.96,West,261,1.0,7.0,84,0.00,,SKC,0.00,VWS V14.01,2013-07-10 13:11:00,
2013-07-10 08:16:00,63.4,58.2,29.97,WSW,258,0.0,8.0,83,0.00,,SKC,0.00,VWS V14.01,2013-07-10 13:16:00,
2013-07-10 08:21:00,63.6,58.3,29.97,SW,233,0.0,8.0,83,0.00,,SKC,0.00,VWS V14.01,2013-07-10 13:21:00,
2013-07-10 08:26:00,63.9,58.3,29.97,NNW,327,0.0,8.0,82,0.00,,SKC,0.00,VWS V14.01,2013-07-10 13:26:00,
2013-07-10 08:31:00,64.2,58.9,29.97,NW,325,0.0,2.0,83,0.00,,SKC,0.00,VWS V14.01,2013-07-10 13:31:00,
2013-07-10 08:36:00,64.4,58.5,29.97,West,269,4.0,4.0,81,0.00,,SKC,0.00,VWS V14.01,2013-07-10 13:36:00,
2013-07-10 08:41:00,64.7,58.7,29.97,WSW,254,0.0,5.0,81,0.00,,SKC,0.00,VWS V14.01,2013-07-10 13:41:00,
2013-07-10 08:46:00,65.0,59.0,29.97,WSW,238,4.0,6.0,81,0.00,,SKC,0.00,VWS V14.01,2013-07-10 13:46:00,
2013-07-10 08:51:00,65.2,58.9,29.97,WSW,250,1.0,8.0,80,0.00,,SKC,0.00,VWS V14.01,2013-07-10 13:51:00,
2013-07-10 08:56:00,65.4,58.7,29.97,West,259,0.0,8.0,79,0.00,,SKC,0.00,VWS V14.01,2013-07-10 13:56:00,
2013-07-10 09:01:00,65.7,59.4,29.97,West,271,0.0,4.0,80,0.00,,SKC,0.00,VWS V14.01,2013-07-10 14:01:00,
2013-07-10 09:06:00,65.9,59.2,29.97,North,360,0.0,8.0,79,0.00,,SKC,0.00,VWS V14.01,2013-07-10 14:06:00,
2013-07-10 09:11:00,66.1,59.0,29.97,NW,307,4.0,10.0,78,0.00,,SKC,0.00,VWS V14.01,2013-07-10 14:11:00,
2013-07-10 09:16:00,66.4,59.3,29.97,WNW,286,0.0,10.0,78,0.00,,SKC,0.00,VWS V14.01,2013-07-10 14:16:00,
2013-07-10 09:21:00,66.7,59.6,29.97,NW,308,0.0,10.0,78,0.00,,SKC,0.00,VWS V14.01,2013-07-10 14:21:00,
2013-07-10 09:26:00,67.0,59.6,29.98,West,267,0.0,10.0,77,0.00,,SKC,0.00,VWS V14.01,2013-07-10 14:26:00,
2013-07-10 09:31:00,67.3,59.1,29.98,NNW,336,4.0,7.0,75,0.00,,SKC,0.00,VWS V14.01,2013-07-10 14:31:00,
2013-07-10 09:36:00,67.5,59.3,29.97,NW,316,0.0,8.0,75,0.00,,SKC,0.00,VWS V14.01,2013-07-10 14:36:00,
2013-07-10 09:41:00,67.8,60.7,29.97,NNW,336,0.0,8.0,78,0.00,,SKC,0.00,VWS V14.01,2013-07-10 14:41:00,
2013-07-10 09:46:00,68.1,59.5,29.97,NW,312,2.0,9.0,74,0.00,,SKC,0.00,VWS V14.01,2013-07-10 14:46:00,
2013-07-10 09:51:00,68.3,60.1,29.97,WNW,301,0.0,9.0,75,0.00,,SKC,0.00,VWS V14.01,2013-07-10 14:51:00,
2013-07-10 09:56:00,68.5,59.5,29.98,NW,317,0.0,9.0,73,0.00,,SKC,0.00,VWS V14.01,2013-07-10 14:56:00,
2013-07-10 10:01:00,68.7,58.9,29.98,West,272,4.0,7.0,71,0.00,,SKC,0.00,VWS V14.01,2013-07-10 15:01:00,
2013-07-10 10:06:00,68.9,59.1,29.98,West,261,7.0,8.0,71,0.00,,SKC,0.00,VWS V14.01,2013-07-10 15:06:00,
2013-07-10 10:11:00,68.9,59.9,29.98,WNW,286,1.0,8.0,73,0.00,,SKC,0.00,VWS V14.01,2013-07-10 15:11:00,
2013-07-10 10:16:00,69.2,59.4,29.97,NW,311,0.0,8.0,71,0.00,,SKC,0.00,VWS V14.01,2013-07-10 15:16:00,
2013-07-10 10:21:00,69.6,59.8,29.97,WNW,299,1.0,8.0,71,0.00,,SKC,0.00,VWS V14.01,2013-07-10 15:21:00,
2013-07-10 10:26:00,69.9,60.1,29.98,WNW,288,0.0,8.0,71,0.00,,SKC,0.00,VWS V14.01,2013-07-10 15:26:00,
2013-07-10 10:31:00,70.2,60.0,29.97,WNW,300,8.0,9.0,70,0.00,,SKC,0.00,VWS V14.01,2013-07-10 15:31:00,
2013-07-10 10:36:00,70.4,60.2,29.98,WNW,296,0.0,9.0,70,0.00,,SKC,0.00,VWS V14.01,2013-07-10 15:36:00,
2013-07-10 10:41:00,70.8,60.1,29.98,NW,306,1.0,9.0,69,0.00,,SKC,0.00,VWS V14.01,2013-07-10 15:41:00,
2013-07-10 10:46:00,71.1,59.2,29.98,NW,321,1.0,9.0,66,0.00,,SKC,0.00,VWS V14.01,2013-07-10 15:46:00,
2013-07-10 10:51:00,71.4,60.3,29.98,WNW,286,0.0,9.0,68,0.00,,SKC,0.00,VWS V14.01,2013-07-10 15:51:00,
2013-07-10 10:56:00,71.5,59.1,29.98,NW,321,5.0,9.0,65,0.00,,SKC,0.00,VWS V14.01,2013-07-10 15:56:00,
2013-07-10 11:01:00,71.7,60.2,29.98,NW,319,2.0,5.0,67,0.00,,SKC,0.00,VWS V14.01,2013-07-10 16:01:00,
2013-07-10 11:06:00,71.9,59.1,29.98,West,265,1.0,5.0,64,0.00,,SKC,0.00,VWS V14.01,2013-07-10 16:06:00,
2013-07-10 11:11:00,71.9,58.6,29.98,NW,305,0.0,10.0,63,0.00,,SKC,0.00,VWS V14.01,2013-07-10 16:11:00,
2013-07-10 11:16:00,71.8,59.8,29.98,NW,316,0.0,10.0,66,0.00,,SKC,0.00,VWS V14.01,2013-07-10 16:16:00,
2013-07-10 11:21:00,71.9,58.2,29.98,NNW,327,1.0,10.0,62,0.00,,SKC,0.00,VWS V14.01,2013-07-10 16:21:00,
2013-07-10 11:26:00,72.0,60.5,29.97,NW,316,0.0,10.0,67,0.00,,SKC,0.00,VWS V14.01,2013-07-10 16:26:00,
2013-07-10 11:31:00,72.2,59.8,29.97,NNW,342,0.0,5.0,65,0.00,,SKC,0.00,VWS V14.01,2013-07-10 16:31:00,
2013-07-10 11:36:00,72.5,59.6,29.97,WSW,254,3.0,12.0,64,0.00,,SKC,0.00,VWS V14.01,2013-07-10 16:36:00,
2013-07-10 11:41:00,72.6,58.4,29.97,NW,323,6.0,12.0,61,0.00,,SKC,0.00,VWS V14.01,2013-07-10 16:41:00,
2013-07-10 11:46:00,73.0,59.2,29.97,West,267,3.0,12.0,62,0.00,,SKC,0.00,VWS V14.01,2013-07-10 16:46:00,
2013-07-10 11:51:00,73.2,58.0,29.97,WNW,293,5.0,12.0,59,0.00,,SKC,0.00,VWS V14.01,2013-07-10 16:51:00,
2013-07-10 11:56:00,73.5,58.3,29.97,WNW,287,0.0,12.0,59,0.00,,SKC,0.00,VWS V14.01,2013-07-10 16:56:00,
2013-07-10 12:01:00,73.6,59.3,29.97,West,278,0.0,8.0,61,0.00,,SKC,0.00,VWS V14.01,2013-07-10 17:01:00,
2013-07-10 12:06:00,73.7,59.4,29.97,West,259,0.0,8.0,61,0.00,,SKC,0.00,VWS V14.01,2013-07-10 17:06:00,
2013-07-10 12:11:00,74.0,59.7,29.97,WNW,296,0.0,8.0,61,0.00,,SKC,0.00,VWS V14.01,2013-07-10 17:11:00,
2013-07-10 12:16:00,74.2,57.5,29.97,NNW,327,2.0,9.0,56,0.00,,SKC,0.00,VWS V14.01,2013-07-10 17:16:00,
2013-07-10 12:21:00,74.3,57.1,29.97,WNW,302,0.0,9.0,55,0.00,,SKC,0.00,VWS V14.01,2013-07-10 17:21:00,
2013-07-10 12:26:00,74.5,59.7,29.97,West,272,2.0,9.0,60,0.00,,SKC,0.00,VWS V14.01,2013-07-10 17:26:00,
2013-07-10 12:31:00,74.6,57.9,29.97,WNW,291,2.0,11.0,56,0.00,,SKC,0.00,VWS V14.01,2013-07-10 17:31:00,
2013-07-10 12:36:00,74.8,60.0,29.97,NW,306,4.0,11.0,60,0.00,,SKC,0.00,VWS V14.01,2013-07-10 17:36:00,
2013-07-10 12:41:00,75.0,59.7,29.97,NNW,333,4.0,11.0,59,0.00,,SKC,0.00,VWS V14.01,2013-07-10 17:41:00,
2013-07-10 12:46:00,74.9,57.7,29.97,WNW,286,1.0,11.0,55,0.00,,SKC,0.00,VWS V14.01,2013-07-10 17:46:00,
2013-07-10 12:51:00,75.1,59.3,29.97,NNW,333,5.0,11.0,58,0.00,,SKC,0.00,VWS V14.01,2013-07-10 17:51:00,
2013-07-10 12:56:00,75.1,58.8,29.97,ENE,71,1.0,11.0,57,0.00,,SKC,0.00,VWS V14.01,2013-07-10 17:56:00,
2013-07-10 13:01:00,75.2,57.4,29.97,NW,313,0.0,4.0,54,0.00,,SKC,0.00,VWS V14.01,2013-07-10 18:01:00,
2013-07-10 13:06:00,75.5,58.2,29.97,West,269,3.0,10.0,55,0.00,,SKC,0.00,VWS V14.01,2013-07-10 18:06:00,
2013-07-10 13:11:00,75.6,58.3,29.97,NW,309,5.0,10.0,55,0.00,,SKC,0.00,VWS V14.01,2013-07-10 18:11:00,
2013-07-10 13:16:00,75.9,59.6,29.97,NNE,19,0.0,10.0,57,0.00,,SKC,0.00,VWS V14.01,2013-07-10 18:16:00,
2013-07-10 13:21:00,76.2,58.4,29.96,North,355,0.0,10.0,54,0.00,,SKC,0.00,VWS V14.01,2013-07-10 18:21:00,
2013-07-10 13:26:00,76.3,57.4,29.96,NW,314,1.0,10.0,52,0.00,,SKC,0.00,VWS V14.01,2013-07-10 18:26:00,
2013-07-10 13:31:00,76.2,57.8,29.96,NW,324,2.0,9.0,53,0.00,,SKC,0.00,VWS V14.01,2013-07-10 18:31:00,
2013-07-10 13:36:00,76.1,56.1,29.96,NNW,327,0.0,12.0,50,0.00,,SKC,0.00,VWS V14.01,2013-07-10 18:36:00,
2013-07-10 13:41:00,76.1,58.8,29.96,WNW,288,1.0,12.0,55,0.00,,SKC,0.00,VWS V14.01,2013-07-10 18:41:00,
2013-07-10 13:46:00,76.2,59.9,29.96,NW,304,2.0,12.0,57,0.00,,SKC,0.00,VWS V14.01,2013-07-10 18:46:00,
2013-07-10 13:51:00,76.2,59.4,29.96,NW,307,2.0,12.0,56,0.00,,SKC,0.00,VWS V14.01,2013-07-10 18:51:00,
2013-07-10 13:56:00,76.5,58.6,29.95,NW,319,0.0,12.0,54,0.00,,SKC,0.00,VWS V14.01,2013-07-10 18:56:00,
2013-07-10 14:01:00,76.7,57.8,29.95,NW,319,0.0,5.0,52,0.00,,SKC,0.00,VWS V14.01,2013-07-10 19:01:00,
2013-07-10 14:06:00,76.8,59.9,29.95,West,261,0.0,6.0,56,0.00,,SKC,0.00,VWS V14.01,2013-07-10 19:06:00,
2013-07-10 14:11:00,76.9,59.0,29.95,SW,234,0.0,7.0,54,0.00,,SKC,0.00,VWS V14.01,2013-07-10 19:11:00,
2013-07-10 14:16:00,77.1,58.1,29.95,North,360,0.0,7.0,52,0.00,,SKC,0.00,VWS V14.01,2013-07-10 19:16:00,
2013-07-10 14:21:00,77.1,57.0,29.95,NW,321,5.0,9.0,50,0.00,,SKC,0.00,VWS V14.01,2013-07-10 19:21:00,
2013-07-10 14:26:00,77.0,61.1,29.95,NW,305,4.0,9.0,58,0.00,,SKC,0.00,VWS V14.01,2013-07-10 19:26:00,
2013-07-10 14:31:00,76.9,58.0,29.95,WNW,301,4.0,6.0,52,0.00,,SKC,0.00,VWS V14.01,2013-07-10 19:31:00,
2013-07-10 14:36:00,76.8,57.9,29.95,NW,320,10.0,10.0,52,0.00,,SKC,0.00,VWS V14.01,2013-07-10 19:36:00,
2013-07-10 14:41:00,76.9,56.3,29.95,NNW,329,0.0,12.0,49,0.00,,SKC,0.00,VWS V14.01,2013-07-10 19:41:00,
2013-07-10 14:46:00,76.9,57.4,29.95,NNW,332,1.0,12.0,51,0.00,,SKC,0.00,VWS V14.01,2013-07-10 19:46:00,
2013-07-10 14:51:00,77.0,59.1,29.95,SW,234,0.0,12.0,54,0.00,,SKC,0.00,VWS V14.01,2013-07-10 19:51:00,
2013-07-10 14:56:00,77.4,59.5,29.95,WNW,294,0.0,12.0,54,0.00,,SKC,0.00,VWS V14.01,2013-07-10 19:56:00,
2013-07-10 15:01:00,77.7,59.2,29.95,NW,317,4.0,4.0,53,0.00,,SKC,0.00,VWS V14.01,2013-07-10 20:01:00,
2013-07-10 15:06:00,77.9,57.2,29.95,NNW,338,2.0,10.0,49,0.00,,SKC,0.00,VWS V14.01,2013-07-10 20:06:00,
2013-07-10 15:11:00,77.9,57.8,29.95,SW,223,2.0,10.0,50,0.00,,SKC,0.00,VWS V14.01,2013-07-10 20:11:00,
2013-07-10 15:16:00,77.8,57.1,29.95,NW,320,5.0,10.0,49,0.00,,SKC,0.00,VWS V14.01,2013-07-10 20:16:00,
2013-07-10 15:21:00,77.7,55.9,29.95,NW,321,0.0,10.0,47,0.00,,SKC,0.00,VWS V14.01,2013-07-10 20:21:00,
2013-07-10 15:26:00,77.7,58.2,29.95,SW,225,0.0,10.0,51,0.00,,SKC,0.00,VWS V14.01,2013-07-10 20:26:00,
2013-07-10 15:31:00,77.4,57.9,29.94,SSW,210,0.0,6.0,51,0.00,,SKC,0.00,VWS V14.01,2013-07-10 20:31:00,
2013-07-10 15:36:00,77.3,57.2,29.94,WSW,238,0.0,6.0,50,0.00,,SKC,0.00,VWS V14.01,2013-07-10 20:36:00,
2013-07-10 15:41:00,77.4,59.5,29.94,WNW,292,4.0,8.0,54,0.00,,SKC,0.00,VWS V14.01,2013-07-10 20:41:00,
2013-07-10 15:46:00,77.4,59.5,29.94,WSW,242,1.0,8.0,54,0.00,,SKC,0.00,VWS V14.01,2013-07-10 20:46:00,
2013-07-10 15:51:00,77.5,56.9,29.94,NNW,343,0.0,9.0,49,0.00,,SKC,0.00,VWS V14.01,2013-07-10 20:51:00,
2013-07-10 15:56:00,77.3,57.2,29.94,West,268,1.0,9.0,50,0.00,,SKC,0.00,VWS V14.01,2013-07-10 20:56:00,
2013-07-10 16:01:00,76.9,59.0,29.94,NNW,328,0.0,3.0,54,0.00,,SKC,0.00,VWS V14.01,2013-07-10 21:01:00,
2013-07-10 16:06:00,77.0,56.4,29.94,NW,317,0.0,8.0,49,0.00,,SKC,0.00,VWS V14.01,2013-07-10 21:06:00,
2013-07-10 16:11:00,77.5,58.5,29.94,NW,306,0.0,8.0,52,0.00,,SKC,0.00,VWS V14.01,2013-07-10 21:11:00,
2013-07-10 16:16:00,77.8,57.7,29.94,NNW,344,0.0,8.0,50,0.00,,SKC,0.00,VWS V14.01,2013-07-10 21:16:00,
2013-07-10 16:21:00,78.0,58.4,29.94,NW,317,0.0,8.0,51,0.00,,SKC,0.00,VWS V14.01,2013-07-10 21:21:00,
2013-07-10 16:26:00,78.1,59.1,29.94,NNW,336,0.0,8.0,52,0.00,,SKC,0.00,VWS V14.01,2013-07-10 21:26:00,
2013-07-10 16:31:00,78.3,58.2,29.94,NW,313,1.0,4.0,50,0.00,,SKC,0.00,VWS V14.01,2013-07-10 21:31:00,
2013-07-10 16:36:00,78.4,57.7,29.94,WSW,239,0.0,4.0,49,0.00,,SKC,0.00,VWS V14.01,2013-07-10 21:36:00,
2013-07-10 16:41:00,78.7,58.5,29.94,NW,309,1.0,5.0,50,0.00,,SKC,0.00,VWS V14.01,2013-07-10 21:41:00,
2013-07-10 16:46:00,79.0,59.3,29.94,NW,323,0.0,5.0,51,0.00,,SKC,0.00,VWS V14.01,2013-07-10 21:46:00,
2013-07-10 16:51:00,78.7,58.0,29.94,NW,319,0.0,5.0,49,0.00,,SKC,0.00,VWS V14.01,2013-07-10 21:51:00,
2013-07-10 16:56:00,78.3,57.6,29.94,NW,319,0.0,5.0,49,0.00,,SKC,0.00,VWS V14.01,2013-07-10 21:56:00,
2013-07-10 17:01:00,77.9,58.9,29.94,NW,319,0.0,0.0,52,0.00,,SKC,0.00,VWS V14.01,2013-07-10 22:01:00,
2013-07-10 17:06:00,77.8,61.4,29.94,NW,311,0.0,0.0,57,0.00,,SKC,0.00,VWS V14.01,2013-07-10 22:06:00,
2013-07-10 17:11:00,78.0,60.5,29.93,NW,311,0.0,1.0,55,0.00,,SKC,0.00,VWS V14.01,2013-07-10 22:11:00,
2013-07-10 17:16:00,78.4,59.3,29.94,NW,308,0.0,4.0,52,0.00,,SKC,0.00,VWS V14.01,2013-07-10 22:16:00,
2013-07-10 17:21:00,78.4,57.7,29.93,NW,311,0.0,4.0,49,0.00,,SKC,0.00,VWS V14.01,2013-07-10 22:21:00,
2013-07-10 17:26:00,78.6,57.3,29.93,WSW,239,0.0,4.0,48,0.00,,SKC,0.00,VWS V14.01,2013-07-10 22:26:00,
2013-07-10 17:31:00,78.5,59.4,29.93,WSW,239,0.0,0.0,52,0.00,,SKC,0.00,VWS V14.01,2013-07-10 22:31:00,
2013-07-10 17:36:00,78.2,58.1,29.93,West,268,0.0,2.0,50,0.00,,SKC,0.00,VWS V14.01,2013-07-10 22:36:00,
2013-07-10 17:41:00,78.2,60.7,29.93,West,268,0.0,2.0,55,0.00,,SKC,0.00,VWS V14.01,2013-07-10 22:41:00,
2013-07-10 17:46:00,78.0,60.5,29.93,West,268,0.0,2.0,55,0.00,,SKC,0.00,VWS V14.01,2013-07-10 22:46:00,
2013-07-10 17:51:00,78.0,59.5,29.93,West,269,0.0,3.0,53,0.00,,SKC,0.00,VWS V14.01,2013-07-10 22:51:00,
2013-07-10 17:56:00,78.2,57.5,29.93,West,269,0.0,3.0,49,0.00,,SKC,0.00,VWS V14.01,2013-07-10 22:56:00,
2013-07-10 18:01:00,78.4,57.7,29.93,SW,233,0.0,2.0,49,0.00,,SKC,0.00,VWS V14.01,2013-07-10 23:01:00,
2013-07-10 18:06:00,78.6,58.4,29.93,SW,233,0.0,2.0,50,0.00,,SKC,0.00,VWS V14.01,2013-07-10 23:06:00,
2013-07-10 18:11:00,78.7,59.1,29.92,NW,307,0.0,2.0,51,0.00,,SKC,0.00,VWS V14.01,2013-07-10 23:11:00,
2013-07-10 18:16:00,78.9,60.9,29.92,NW,307,0.0,2.0,54,0.00,,SKC,0.00,VWS V14.01,2013-07-10 23:16:00,
2013-07-10 18:21:00,79.0,62.5,29.92,NW,307,0.0,2.0,57,0.00,,SKC,0.00,VWS V14.01,2013-07-10 23:21:00,
2013-07-10 18:26:00,79.3,58.5,29.93,NW,307,0.0,2.0,49,0.00,,SKC,0.00,VWS V14.01,2013-07-10 23:26:00,
2013-07-10 18:31:00,79.4,61.3,29.93,NW,307,0.0,0.0,54,0.00,,SKC,0.00,VWS V14.01,2013-07-10 23:31:00,
2013-07-10 18:36:00,79.4,62.3,29.93,NW,307,0.0,0.0,56,0.00,,SKC,0.00,VWS V14.01,2013-07-10 23:36:00,
2013-07-10 18:41:00,79.2,61.1,29.93,NW,320,0.0,0.0,54,0.00,,SKC,0.00,VWS V14.01,2013-07-10 23:41:00,
2013-07-10 18:46:00,79.1,62.6,29.93,NW,320,0.0,0.0,57,0.00,,SKC,0.00,VWS V14.01,2013-07-10 23:46:00,
2013-07-10 18:51:00,78.9,61.9,29.93,NW,320,0.0,0.0,56,0.00,,SKC,0.00,VWS V14.01,2013-07-10 23:51:00,
2013-07-10 18:56:00,78.7,62.7,29.93,NW,320,0.0,0.0,58,0.00,,SKC,0.00,VWS V14.01,2013-07-10 23:56:00,
2013-07-10 19:01:00,78.7,63.2,29.93,NW,320,0.0,0.0,59,0.00,,SKC,0.00,VWS V14.01,2013-07-11 00:01:00,
2013-07-10 19:06:00,78.6,63.6,29.93,NW,320,0.0,0.0,60,0.00,,SKC,0.00,VWS V14.01,2013-07-11 00:06:00,
2013-07-10 19:11:00,78.4,62.9,29.93,NW,320,0.0,0.0,59,0.00,,SKC,0.00,VWS V14.01,2013-07-11 00:11:00,
2013-07-10 19:16:00,78.1,63.1,29.93,NW,320,0.0,0.0,60,0.00,,SKC,0.00,VWS V14.01,2013-07-11 00:16:00,
2013-07-10 19:21:00,77.8,62.8,29.93,NW,320,0.0,0.0,60,0.00,,SKC,0.00,VWS V14.01,2013-07-11 00:21:00,
2013-07-10 19:26:00,77.5,63.0,29.93,NW,320,0.0,0.0,61,0.00,,SKC,0.00,VWS V14.01,2013-07-11 00:26:00,
2013-07-10 19:31:00,77.4,63.4,29.93,NW,320,0.0,0.0,62,0.00,,SKC,0.00,VWS V14.01,2013-07-11 00:31:00,
2013-07-10 19:36:00,77.3,62.8,29.93,NW,320,0.0,0.0,61,0.00,,SKC,0.00,VWS V14.01,2013-07-11 00:36:00,
2013-07-10 19:41:00,77.1,62.6,29.93,NW,320,0.0,0.0,61,0.00,,SKC,0.00,VWS V14.01,2013-07-11 00:41:00,
2013-07-10 19:46:00,76.8,62.8,29.93,NW,320,0.0,0.0,62,0.00,,SKC,0.00,VWS V14.01,2013-07-11 00:46:00,
2013-07-10 19:51:00,76.6,62.6,29.93,NW,320,0.0,0.0,62,0.00,,SKC,0.00,VWS V14.01,2013-07-11 00:51:00,
2013-07-10 19:56:00,76.3,63.2,29.93,NW,320,0.0,0.0,64,0.00,,SKC,0.00,VWS V14.01,2013-07-11 00:56:00,
2013-07-10 20:01:00,76.0,63.8,29.93,NW,320,0.0,0.0,66,0.00,,SKC,0.00,VWS V14.01,2013-07-11 01:01:00,
2013-07-10 20:06:00,75.9,64.2,29.93,NW,320,0.0,0.0,67,0.00,,SKC,0.00,VWS V14.01,2013-07-11 01:06:00,
2013-07-10 20:11:00,75.7,64.0,29.93,NW,320,0.0,0.0,67,0.00,,SKC,0.00,VWS V14.01,2013-07-11 01:11:00,
2013-07-10 20:16:00,75.5,64.2,29.93,NW,320,0.0,0.0,68,0.00,,SKC,0.00,VWS V14.01,2013-07-11 01:16:00,
2013-07-10 20:21:00,75.1,64.2,29.93,NW,320,0.0,0.0,69,0.00,,SKC,0.00,VWS V14.01,2013-07-11 01:21:00,
2013-07-10 20:26:00,74.6,64.2,29.93,NW,320,0.0,0.0,70,0.00,,SKC,0.00,VWS V14.01,2013-07-11 01:26:00,
2013-07-10 20:31:00,74.1,64.5,29.93,NW,320,0.0,0.0,72,0.00,,SKC,0.00,VWS V14.01,2013-07-11 01:31:00,
2013-07-10 20:36:00,73.4,64.2,29.93,NW,320,0.0,0.0,73,0.00,,SKC,0.00,VWS V14.01,2013-07-11 01:36:00,
2013-07-10 20:41:00,72.7,63.5,29.93,NW,320,0.0,0.0,73,0.00,,SKC,0.00,VWS V14.01,2013-07-11 01:41:00,
2013-07-10 20:46:00,72.2,63.1,29.93,NW,320,0.0,0.0,73,0.00,,SKC,0.00,VWS V14.01,2013-07-11 01:46:00,
2013-07-10 20:51:00,71.5,63.2,29.93,NW,320,0.0,0.0,75,0.00,,SKC,0.00,VWS V14.01,2013-07-11 01:51:00,
2013-07-10 20:56:00,70.9,63.0,29.94,NW,320,0.0,0.0,76,0.00,,SKC,0.00,VWS V14.01,2013-07-11 01:56:00,
2013-07-10 21:01:00,70.2,62.7,29.93,NW,320,0.0,0.0,77,0.00,,SKC,0.00,VWS V14.01,2013-07-11 02:01:00,
2013-07-10 21:06:00,69.5,62.0,29.94,NW,320,0.0,0.0,77,0.00,,SKC,0.00,VWS V14.01,2013-07-11 02:06:00,
2013-07-10 21:11:00,68.9,62.1,29.93,NW,320,0.0,0.0,79,0.00,,SKC,0.00,VWS V14.01,2013-07-11 02:11:00,
2013-07-10 21:16:00,68.3,61.5,29.93,NW,320,0.0,0.0,79,0.00,,SKC,0.00,VWS V14.01,2013-07-11 02:16:00,
2013-07-10 21:21:00,67.9,61.5,29.94,NW,320,0.0,0.0,80,0.00,,SKC,0.00,VWS V14.01,2013-07-11 02:21:00,
2013-07-10 21:26:00,67.4,61.4,29.94,NW,320,0.0,0.0,81,0.00,,SKC,0.00,VWS V14.01,2013-07-11 02:26:00,
2013-07-10 21:31:00,67.0,61.3,29.94,NW,320,0.0,0.0,82,0.00,,SKC,0.00,VWS V14.01,2013-07-11 02:31:00,
2013-07-10 21:36:00,66.6,61.3,29.94,NW,320,0.0,0.0,83,0.00,,SKC,0.00,VWS V14.01,2013-07-11 02:36:00,
2013-07-10 21:41:00,66.1,61.5,29.94,NW,320,0.0,0.0,85,0.00,,SKC,0.00,VWS V14.01,2013-07-11 02:41:00,
2013-07-10 21:46:00,65.7,61.1,29.94,NW,320,0.0,0.0,85,0.00,,SKC,0.00,VWS V14.01,2013-07-11 02:46:00,
2013-07-10 21:51:00,65.4,60.8,29.95,NW,320,0.0,0.0,85,0.00,,SKC,0.00,VWS V14.01,2013-07-11 02:51:00,
2013-07-10 21:56:00,65.0,60.7,29.95,NW,320,0.0,0.0,86,0.00,,SKC,0.00,VWS V14.01,2013-07-11 02:56:00,
2013-07-10 22:01:00,64.7,60.8,29.95,NW,320,0.0,0.0,87,0.00,,SKC,0.00,VWS V14.01,2013-07-11 03:01:00,
2013-07-10 22:06:00,64.4,60.5,29.95,NW,320,0.0,0.0,87,0.00,,SKC,0.00,VWS V14.01,2013-07-11 03:06:00,
2013-07-10 22:11:00,64.1,60.2,29.95,NW,320,0.0,0.0,87,0.00,,SKC,0.00,VWS V14.01,2013-07-11 03:11:00,
2013-07-10 22:16:00,63.8,60.5,29.95,NW,320,0.0,0.0,89,0.00,,SKC,0.00,VWS V14.01,2013-07-11 03:16:00,
2013-07-10 22:21:00,63.5,59.9,29.96,NW,320,0.0,0.0,88,0.00,,SKC,0.00,VWS V14.01,2013-07-11 03:21:00,
2013-07-10 22:26:00,63.3,60.3,29.96,NW,320,0.0,0.0,90,0.00,,SKC,0.00,VWS V14.01,2013-07-11 03:26:00,
2013-07-10 22:31:00,63.1,60.1,29.96,NW,320,0.0,0.0,90,0.00,,SKC,0.00,VWS V14.01,2013-07-11 03:31:00,
2013-07-10 22:36:00,62.9,59.9,29.96,NW,320,0.0,0.0,90,0.00,,SKC,0.00,VWS V14.01,2013-07-11 03:36:00,
2013-07-10 22:41:00,62.6,59.6,29.96,NW,320,0.0,0.0,90,0.00,,SKC,0.00,VWS V14.01,2013-07-11 03:41:00,
2013-07-10 22:46:00,62.4,59.4,29.96,NW,320,0.0,0.0,90,0.00,,SKC,0.00,VWS V14.01,2013-07-11 03:46:00,
2013-07-10 22:51:00,62.1,59.1,29.96,NW,320,0.0,0.0,90,0.00,,SKC,0.00,VWS V14.01,2013-07-11 03:51:00,
2013-07-10 22:56:00,61.8,58.8,29.96,NW,320,0.0,0.0,90,0.00,,SKC,0.00,VWS V14.01,2013-07-11 03:56:00,
2013-07-10 23:01:00,61.6,59.0,29.97,NW,320,0.0,0.0,91,0.00,,SKC,0.00,VWS V14.01,2013-07-11 04:01:00,
2013-07-10 23:06:00,61.4,58.8,29.96,NW,320,0.0,0.0,91,0.00,,SKC,0.00,VWS V14.01,2013-07-11 04:06:00,
2013-07-10 23:11:00,61.2,58.6,29.97,NW,320,0.0,0.0,91,0.00,,SKC,0.00,VWS V14.01,2013-07-11 04:11:00,
2013-07-10 23:16:00,61.1,58.8,29.97,NW,320,0.0,0.0,92,0.00,,SKC,0.00,VWS V14.01,2013-07-11 04:16:00,
2013-07-10 23:21:00,60.9,58.6,29.97,NW,320,0.0,0.0,92,0.00,,SKC,0.00,VWS V14.01,2013-07-11 04:21:00,
2013-07-10 23:26:00,60.7,58.7,29.97,NW,320,0.0,0.0,93,0.00,,SKC,0.00,VWS V14.01,2013-07-11 04:26:00,
2013-07-10 23:31:00,60.7,58.7,29.97,NW,320,0.0,0.0,93,0.00,,SKC,0.00,VWS V14.01,2013-07-11 04:31:00,
2013-07-10 23:36:00,60.6,58.6,29.98,NW,320,0.0,0.0,93,0.00,,SKC,0.00,VWS V14.01,2013-07-11 04:36:00,
2013-07-10 23:41:00,60.5,58.8,29.97,NW,320,0.0,0.0,94,0.00,,SKC,0.00,VWS V14.01,2013-07-11 04:41:00,
2013-07-10 23:46:00,60.5,58.8,29.98,NW,320,0.0,0.0,94,0.00,,SKC,0.00,VWS V14.01,2013-07-11 04:46:00,
2013-07-10 23:51:00,60.4,58.7,29.98,NW,320,0.0,0.0,94,0.00,,SKC,0.00,VWS V14.01,2013-07-11 04:51:00,
2013-07-10 23:56:00,60.4,58.7,29.98,NW,320,0.0,0.0,94,0.00,,SKC,0.00,VWS V14.01,2013-07-11 04:56:00,